TimeHST,TemperatureF,Dew PointF,Humidity,Sea Level PressureIn,VisibilityMPH,Wind Direction,Wind SpeedMPH,Gust SpeedMPH,PrecipitationIn,Events,Conditions,WindDirDegrees,DateUTC
12:55 AM,66.6,61.9,85,30.03,10.0,WNW,4.6,-,N/A,,Partly Cloudy,300,2013-06-20 10:55:00
1:55 AM,66.0,61.3,85,30.01,10.0,WNW,5.8,-,N/A,,Clear,300,2013-06-20 11:55:00
2:55 AM,64.9,61.0,87,29.99,10.0,WNW,5.8,-,N/A,,Clear,300,2013-06-20 12:55:00
3:55 AM,64.0,60.4,88,29.99,10.0,WNW,4.6,-,N/A,,Partly Cloudy,290,2013-06-20 13:55:00
4:55 AM,65.5,61.2,86,29.98,10.0,WNW,5.8,-,N/A,,Scattered Clouds,290,2013-06-20 14:55:00
5:55 AM,65.1,61.2,87,29.99,10.0,NW,4.6,-,N/A,,Scattered Clouds,310,2013-06-20 15:55:00
6:55 AM,68.2,64.0,87,30.01,10.0,WNW,4.6,-,N/A,,Partly Cloudy,290,2013-06-20 16:55:00
7:55 AM,71.1,64.0,78,30.02,10.0,Variable,4.6,-,N/A,,Mostly Cloudy,0,2013-06-20 17:55:00
7:56 AM,71.6,64.4,78,30.02,10.0,NE,4.6,-,N/A,,Drizzle,40,2013-06-20 17:56:00
8:05 AM,71.6,64.4,78,30.03,10.0,NE,4.6,-,N/A,,Overcast,50,2013-06-20 18:05:00
8:20 AM,71.6,64.4,78,30.03,8.0,ENE,6.9,-,N/A,,Light Drizzle,60,2013-06-20 18:20:00
8:33 AM,71.6,64.4,78,30.03,10.0,Calm,Calm,-,N/A,,Mostly Cloudy,0,2013-06-20 18:33:00
8:49 AM,71.6,64.4,78,30.04,10.0,Calm,Calm,-,N/A,,Overcast,0,2013-06-20 18:49:00
8:52 AM,71.6,66.2,83,30.04,10.0,ENE,3.5,-,N/A,,Overcast,70,2013-06-20 18:52:00
8:53 AM,71.6,66.2,83,30.03,9.0,East,4.6,-,N/A,,Light Drizzle,90,2013-06-20 18:53:00
8:55 AM,71.8,65.5,80,30.03,9.0,ENE,4.6,-,0.00,,Light Drizzle,70,2013-06-20 18:55:00
9:02 AM,71.6,66.2,83,30.04,9.0,ENE,3.5,-,N/A,,Overcast,70,2013-06-20 19:02:00
9:55 AM,75.7,64.4,68,30.03,10.0,East,9.2,-,0.00,,Mostly Cloudy,80,2013-06-20 19:55:00
10:55 AM,78.3,65.1,64,30.02,10.0,ENE,9.2,-,N/A,,Mostly Cloudy,60,2013-06-20 20:55:00
11:55 AM,78.1,65.3,65,30.03,10.0,ENE,11.5,-,N/A,,Mostly Cloudy,60,2013-06-20 21:55:00
12:52 PM,77.0,66.2,69,30.02,8.0,ENE,11.5,-,N/A,,Light Drizzle,60,2013-06-20 22:52:00
12:55 PM,75.6,66.4,73,30.02,8.0,ENE,9.2,-,0.00,,Light Drizzle,60,2013-06-20 22:55:00
12:57 PM,75.2,66.2,73,30.02,8.0,ENE,8.1,-,N/A,,Overcast,60,2013-06-20 22:57:00
1:55 PM,79.2,65.5,63,30.00,10.0,ENE,9.2,-,0.00,,Mostly Cloudy,70,2013-06-20 23:55:00
2:55 PM,78.3,66.0,66,30.00,10.0,East,15.0,-,N/A,,Overcast,80,2013-06-21 00:55:00
3:55 PM,76.6,64.9,67,30.00,10.0,ENE,11.5,-,N/A,,Overcast,70,2013-06-21 01:55:00
4:55 PM,77.0,65.1,67,29.99,10.0,ENE,11.5,-,N/A,,Overcast,60,2013-06-21 02:55:00
5:55 PM,74.8,63.7,68,30.01,10.0,ENE,9.2,-,N/A,,Overcast,60,2013-06-21 03:55:00
6:55 PM,74.3,63.7,69,30.01,10.0,Variable,5.8,-,N/A,,Overcast,0,2013-06-21 04:55:00
7:55 PM,72.9,64.2,74,30.04,10.0,North,3.5,-,N/A,,Scattered Clouds,360,2013-06-21 05:55:00
8:46 PM,71.6,64.4,78,30.04,10.0,WNW,4.6,-,N/A,,Mostly Cloudy,290,2013-06-21 06:46:00
8:49 PM,71.6,64.4,78,30.04,10.0,WNW,4.6,-,N/A,,Light Drizzle,300,2013-06-21 06:49:00
8:55 PM,71.4,65.3,81,30.05,10.0,Variable,3.5,-,0.00,,Light Drizzle,0,2013-06-21 06:55:00
9:20 PM,71.6,66.2,83,30.06,2.5,NNE,4.6,-,N/A,Rain,Heavy Rain,20,2013-06-21 07:20:00
9:22 PM,69.8,66.2,88,30.06,3.0,NNE,4.6,-,N/A,Rain,Heavy Rain,30,2013-06-21 07:22:00
9:45 PM,69.8,66.2,88,30.06,10.0,NNE,3.5,-,N/A,,Mostly Cloudy,30,2013-06-21 07:45:00
9:55 PM,69.6,66.6,90,30.06,10.0,Calm,Calm,-,0.05,,Mostly Cloudy,0,2013-06-21 07:55:00
10:53 PM,69.8,66.2,88,30.06,10.0,WNW,3.5,-,N/A,,Light Drizzle,290,2013-06-21 08:53:00
10:55 PM,69.1,66.7,92,30.06,10.0,WNW,3.5,-,0.00,,Light Drizzle,290,2013-06-21 08:55:00
11:15 PM,69.8,66.2,88,30.06,10.0,WNW,4.6,-,N/A,,Mostly Cloudy,300,2013-06-21 09:15:00
11:49 PM,68.0,66.2,94,30.05,10.0,Calm,Calm,-,N/A,,Light Drizzle,0,2013-06-21 09:49:00
11:55 PM,68.7,66.4,92,30.05,10.0,Variable,3.5,-,0.00,,Light Drizzle,0,2013-06-21 09:55:00
11:58 PM,69.8,66.2,88,30.05,10.0,Variable,3.5,-,N/A,,Scattered Clouds,0,2013-06-21 09:58:00